Weather History for Oxford, NC

Change the Weather History Date:

Wednesday, December 26, 2012

  Actual Average (KTDF) Record (KTDF)
Temperature  
Mean Temperature 40 °F -  
Max Temperature 45 °F 46 °F 73 °F (1982)
Min Temperature 36 °F 25 °F -1 °F (1983)
Degree Days  
Heating Degree Days 24    
Moisture  
Dew Point 38 °F    
Average Humidity 92    
Maximum Humidity 97    
Minimum Humidity 73    
Precipitation  
Precipitation 1.45 in - - ()
Sea Level Pressure  
Sea Level Pressure 29.73 in    
Wind  
Wind Speed 10 mph (NNE)    
Max Wind Speed 21 mph    
Max Gust Speed 29 mph    
Visibility 7 miles    
Events Rain    
Averages and records for this station are not official NWS values.
T = Trace of Precipitation, MM = Missing Value Source: NWS Daily Summary

Daily Weather History Graph

Daily Weather History Graph

Search for Another Location

Airport:

Trip Planner

Search our weather history database for the weather conditions in past years. The results will help you decide how hot, cold, wet, or windy it might be!

Date:

Astronomy

Dec. 26, 2012 Rise Set
Actual Time 7:24 AM EST 5:05 PM EST
Civil Twilight 6:55 AM EST 5:34 PM EST
Nautical Twilight 6:23 AM EST 6:06 PM EST
Astronomical Twilight 5:51 AM EST 6:38 PM EST
Moon 3:57 PM EST (12/26) 5:47 AM EST (12/26)
Length of Visible Light 10h 39m
Length of Day
9h 41m
Waxing Gibbous, 97% of the Moon is Illuminated
Dec 26
Waxing Gibbous
Dec 28
Full
Jan 4
Last Quarter
Jan 11
New
Jan 18
First Quarter

Hourly Weather History & Observations

Time (EST) Temp. Windchill Dew Point Humidity Pressure Visibility Wind Dir Wind Speed Gust Speed Precip Events Conditions
12:15 AM 45.1 °F 39.9 °F 36.9 °F 73% 30.11 in 10.0 mi NE 10.4 mph 16.1 mph N/A   Overcast
12:35 AM 43.9 °F 37.9 °F 36.3 °F 75% 30.09 in 10.0 mi ENE 11.5 mph - N/A   Drizzle
12:55 AM 42.8 °F 36.6 °F 37.4 °F 81% 30.08 in 10.0 mi ENE 11.5 mph - N/A Rain Light Rain
1:15 AM 42.3 °F 36.8 °F 36.9 °F 81% 30.07 in 10.0 mi NE 9.2 mph 18.4 mph N/A   Overcast
1:35 AM 42.3 °F 37.3 °F 37.2 °F 82% 30.09 in 10.0 mi ENE 8.1 mph - N/A   Overcast
1:55 AM 42.3 °F 36.8 °F 36.7 °F 81% 30.07 in 10.0 mi NE 9.2 mph - N/A   Overcast
2:15 AM 42.4 °F 37.0 °F 36.5 °F 79% 30.08 in 10.0 mi ENE 9.2 mph - N/A   Overcast
2:35 AM 42.4 °F 37.5 °F 36.5 °F 79% 30.07 in 10.0 mi NE 8.1 mph - N/A   Overcast
2:55 AM 42.3 °F 36.8 °F 36.5 °F 80% 30.06 in 10.0 mi ENE 9.2 mph - N/A Rain Light Rain
3:15 AM 42.1 °F 37.1 °F 36.5 °F 81% 30.06 in 10.0 mi ENE 8.1 mph - N/A Rain Light Rain
3:35 AM 41.9 °F 37.5 °F 36.5 °F 81% 30.06 in 10.0 mi NE 6.9 mph - N/A Rain Light Rain
3:55 AM 41.4 °F 36.8 °F 37.2 °F 85% 30.04 in 5.0 mi NE 6.9 mph - N/A Rain Light Rain
4:15 AM 41.0 °F 35.8 °F 38.3 °F 90% 30.03 in 7.0 mi NE 8.1 mph - N/A   Light Drizzle
4:35 AM 41.0 °F 35.8 °F 38.5 °F 91% 30.02 in 5.0 mi NE 8.1 mph - N/A Rain Rain
4:55 AM 40.5 °F 34.6 °F 38.5 °F 93% 29.99 in 4.0 mi NE 9.2 mph - 0.01 in   Drizzle
5:15 AM 40.5 °F 34.6 °F 38.7 °F 93% 29.98 in 5.0 mi NE 9.2 mph - N/A Rain Light Rain
5:35 AM 40.5 °F 33.6 °F 38.8 °F 94% 29.97 in 4.0 mi NE 11.5 mph - 0.01 in Rain Rain
5:55 AM 40.6 °F 32.0 °F 39.2 °F 95% 29.95 in 3.0 mi ENE 17.3 mph 20.7 mph 0.03 in Rain Light Rain
6:15 AM 40.8 °F 32.6 °F 39.2 °F 94% 29.94 in 4.0 mi ENE 16.1 mph 19.6 mph N/A Rain Light Rain
6:35 AM 40.5 °F 33.2 °F 38.8 °F 94% 29.92 in 4.0 mi NE 12.7 mph 17.3 mph 0.02 in Rain Light Rain
6:55 AM 40.1 °F 31.3 °F 38.3 °F 93% 29.90 in 3.0 mi ENE 17.3 mph 25.3 mph 0.05 in Rain Rain
7:15 AM 39.6 °F 30.0 °F 38.1 °F 95% 29.89 in 5.0 mi ENE 19.6 mph 27.6 mph 0.01 in Rain Light Rain
7:35 AM 39.6 °F 31.3 °F 38.1 °F 95% 29.88 in 2.5 mi ENE 15.0 mph 24.2 mph 0.09 in Rain Heavy Rain
7:55 AM 39.6 °F 31.3 °F 37.9 °F 94% 29.86 in 5.0 mi ENE 15.0 mph 21.9 mph 0.15 in Rain Light Rain
8:15 AM 39.6 °F 30.0 °F 37.9 °F 94% 29.84 in 4.0 mi ENE 19.6 mph 28.8 mph 0.06 in Rain Rain
8:35 AM 39.7 °F 30.9 °F 38.3 °F 95% 29.83 in 4.0 mi ENE 17.3 mph 24.2 mph 0.12 in Rain Rain
8:55 AM 40.1 °F 30.5 °F 38.5 °F 94% 29.81 in 2.0 mi ENE 20.7 mph 26.5 mph 0.18 in Rain Light Rain
9:15 AM 40.5 °F 32.8 °F 38.8 °F 94% 29.79 in 5.0 mi ENE 13.8 mph 24.2 mph 0.02 in Rain Light Rain
9:35 AM 41.0 °F 33.1 °F 39.4 °F 94% 29.79 in 5.0 mi ENE 15.0 mph 19.6 mph 0.03 in Rain Light Rain
9:55 AM 41.4 °F 33.6 °F 39.7 °F 94% 29.79 in 1.2 mi ENE 15.0 mph 18.4 mph 0.16 in Rain Heavy Rain
10:15 AM 41.5 °F 37.8 °F 40.1 °F 95% 29.82 in 1.0 mi NE 5.8 mph - 0.13 in Rain Light Rain
10:35 AM 41.4 °F 37.6 °F 39.7 °F 94% 29.79 in 1.8 mi North 5.8 mph - 0.27 in Rain Heavy Rain
10:55 AM 41.0 °F 36.4 °F 39.4 °F 94% 29.76 in 1.5 mi NNE 6.9 mph - 0.38 in Rain Heavy Rain
11:15 AM 41.0 °F 35.2 °F 39.6 °F 95% 29.71 in 2.5 mi NNE 9.2 mph 15.0 mph 0.09 in Rain Rain
11:35 AM 41.4 °F 34.3 °F 40.1 °F 95% 29.69 in 10.0 mi NE 12.7 mph 18.4 mph 0.11 in Rain Rain
11:55 AM 41.9 °F 35.9 °F 40.6 °F 95% 29.64 in 7.0 mi NE 10.4 mph - 0.15 in Rain Light Rain
12:15 PM 42.3 °F 34.4 °F 41.0 °F 95% 29.60 in 10.0 mi ENE 16.1 mph 20.7 mph N/A Rain Light Rain
12:35 PM 42.8 °F 34.8 °F 41.4 °F 95% 29.56 in 10.0 mi NE 17.3 mph 21.9 mph N/A   Light Drizzle
12:55 PM 43.0 °F 35.4 °F 41.9 °F 96% 29.51 in 4.0 mi ENE 16.1 mph 21.9 mph 0.07 in Rain Heavy Rain
1:15 PM 43.0 °F 37.2 °F 41.9 °F 96% 29.55 in 1.0 mi North 10.4 mph 20.7 mph 0.11 in Rain Heavy Rain
1:35 PM 45.5 °F 40.3 °F 44.1 °F 95% 29.53 in 3.0 mi NNE 10.4 mph - 0.20 in Rain Rain
1:55 PM 45.7 °F 41.5 °F 43.9 °F 93% 29.49 in 7.0 mi NNE 8.1 mph - 0.22 in Rain Light Rain
2:15 PM 45.5 °F 41.8 °F 43.7 °F 93% 29.48 in 10.0 mi NNE 6.9 mph - N/A   Overcast
2:35 PM 45.5 °F 43.2 °F 43.9 °F 94% 29.46 in 10.0 mi North 4.6 mph - N/A   Overcast
2:55 PM 45.5 °F 42.5 °F 44.1 °F 95% 29.44 in 10.0 mi NNE 5.8 mph - N/A   Overcast
3:15 PM 45.0 °F 41.8 °F 43.7 °F 95% 29.45 in 10.0 mi NNW 5.8 mph - N/A   Overcast
3:35 PM 43.7 °F 38.6 °F 42.3 °F 95% 29.47 in 10.0 mi WNW 9.2 mph - N/A   Overcast
3:55 PM 41.9 °F 35.9 °F 40.8 °F 96% 29.45 in 7.0 mi North 10.4 mph - N/A   Overcast
4:15 PM 41.5 °F 36.4 °F 40.3 °F 95% 29.46 in 5.0 mi North 8.1 mph - N/A   Overcast
4:35 PM 41.2 °F 36.0 °F 40.1 °F 96% 29.46 in 7.0 mi NNW 8.1 mph - N/A   Overcast
4:55 PM 40.5 °F 35.8 °F 39.4 °F 96% 29.46 in 7.0 mi NNW 6.9 mph - N/A   Overcast
5:15 PM 39.7 °F 35.6 °F 38.7 °F 96% 29.47 in 10.0 mi NW 5.8 mph - N/A   Overcast
5:35 PM 39.2 °F 33.0 °F 37.9 °F 95% 29.48 in 10.0 mi NNW 9.2 mph - N/A   Overcast
5:55 PM 38.7 °F 32.9 °F 37.6 °F 96% 29.49 in 10.0 mi NNW 8.1 mph - N/A   Overcast
6:15 PM 38.3 °F 34.8 °F 37.0 °F 95% 29.48 in 5.0 mi NNW 4.6 mph - N/A Rain Light Rain
6:35 PM 38.1 °F 35.7 °F 37.0 °F 96% 29.49 in 4.0 mi West 3.5 mph - 0.02 in Rain Rain
6:55 PM 37.6 °F 33.1 °F 36.5 °F 96% 29.51 in 5.0 mi West 5.8 mph - 0.04 in Rain Light Rain
7:15 PM 37.4 °F 32.8 °F 36.5 °F 97% 29.51 in 10.0 mi West 5.8 mph - N/A   Light Drizzle
7:35 PM 37.2 °F 31.2 °F 36.0 °F 95% 29.51 in 10.0 mi West 8.1 mph - N/A   Overcast
8:15 PM 36.9 °F 31.4 °F 36.0 °F 97% 29.52 in 7.0 mi West 6.9 mph - 0.01 in   Overcast
8:35 PM 36.7 °F 29.9 °F 35.8 °F 97% 29.53 in 10.0 mi West 9.2 mph - 0.01 in   Overcast
8:55 PM 36.7 °F 30.5 °F 35.8 °F 97% 29.54 in 10.0 mi West 8.1 mph - 0.01 in   Overcast
9:15 PM 36.7 °F 31.2 °F 35.6 °F 96% 29.55 in 10.0 mi West 6.9 mph - N/A   Overcast
9:35 PM 36.7 °F 32.0 °F 35.6 °F 96% 29.55 in 10.0 mi WSW 5.8 mph - N/A   Overcast
9:55 PM 36.5 °F 31.0 °F 35.4 °F 96% 29.56 in 10.0 mi WSW 6.9 mph - N/A   Overcast
10:15 PM 36.7 °F 31.2 °F 35.4 °F 95% 29.57 in 10.0 mi WSW 6.9 mph - N/A   Overcast
10:35 PM 36.5 °F 29.7 °F 35.2 °F 95% 29.58 in 10.0 mi SW 9.2 mph - N/A   Overcast
10:55 PM 36.9 °F 30.7 °F 35.4 °F 95% 29.58 in 10.0 mi SW 8.1 mph - N/A   Overcast
11:15 PM 36.9 °F 30.7 °F 35.6 °F 95% 29.58 in 10.0 mi SW 8.1 mph - N/A   Mostly Cloudy
11:35 PM 37.0 °F 31.0 °F 35.6 °F 95% 29.59 in 10.0 mi SW 8.1 mph - N/A   Overcast
11:55 PM 36.7 °F 29.9 °F 35.2 °F 95% 29.59 in 10.0 mi SW 9.2 mph - N/A   Scattered Clouds